Data supplied by UK-AIR on 21/1/2015
All Data GMT hour ending 
Status: R =Ratified P=Provisional,P*=As supplied
,,Honiton,,,,,,,,,,,,,,,,,,,,,,,
Date,time,"Nitric oxide",status,unit,"Nitrogen dioxide",status,unit,"Nitrogen oxides as nitrogen dioxide",status,unit
 
01-01-2013,01:00,0.27940,R,ugm-3,2.95864,R,ugm-3,3.38704,R,ugm-3
01-01-2013,02:00,0.69849,R,ugm-3,3.42083,R,ugm-3,4.49151,R,ugm-3
01-01-2013,03:00,0.62864,R,ugm-3,5.71790,R,ugm-3,6.68204,R,ugm-3
01-01-2013,04:00,0.41909,R,ugm-3,3.05713,R,ugm-3,3.69997,R,ugm-3
01-01-2013,05:00,0.38417,R,ugm-3,4.49151,R,ugm-3,5.08056,R,ugm-3
01-01-2013,06:00,0.41909,R,ugm-3,4.82380,R,ugm-3,5.46712,R,ugm-3
01-01-2013,07:00,0.80326,R,ugm-3,8.81902,R,ugm-3,10.05067,R,ugm-3
01-01-2013,08:00,0.69849,R,ugm-3,9.31053,R,ugm-3,10.38201,R,ugm-3
01-01-2013,09:00,0.90803,R,ugm-3,10.53596,R,ugm-3,11.92826,R,ugm-3
01-01-2013,10:00,1.39698,R,ugm-3,12.82331,R,ugm-3,14.96555,R,ugm-3
01-01-2013,11:00,1.81607,R,ugm-3,9.19913,R,ugm-3,11.98349,R,ugm-3
01-01-2013,12:00,1.46683,R,ugm-3,6.75160,R,ugm-3,9.00142,R,ugm-3
01-01-2013,13:00,1.43190,R,ugm-3,6.64068,R,ugm-3,8.83575,R,ugm-3
01-01-2013,14:00,1.60652,R,ugm-3,6.92468,R,ugm-3,9.38798,R,ugm-3
01-01-2013,15:00,1.04773,R,ugm-3,6.89839,R,ugm-3,8.50441,R,ugm-3
01-01-2013,16:00,1.15251,R,ugm-3,8.67032,R,ugm-3,10.43723,R,ugm-3
01-01-2013,17:00,1.43190,R,ugm-3,18.67939,R,ugm-3,20.87446,R,ugm-3
01-01-2013,18:00,2.09546,R,ugm-3,23.07288,R,ugm-3,26.28636,R,ugm-3
01-01-2013,19:00,1.92084,R,ugm-3,19.36502,R,ugm-3,22.31027,R,ugm-3
01-01-2013,20:00,5.44821,R,ugm-3,34.22323,R,ugm-3,42.57727,R,ugm-3
01-01-2013,21:00,3.03842,R,ugm-3,30.07693,R,ugm-3,34.73554,R,ugm-3
01-01-2013,22:00,1.18743,R,ugm-3,21.31816,R,ugm-3,23.13862,R,ugm-3
01-01-2013,23:00,1.39698,R,ugm-3,25.02793,R,ugm-3,27.16993,R,ugm-3
01-01-2013,24:00,0.73341,R,ugm-3,14.39300,R,ugm-3,15.51779,R,ugm-3
02-01-2013,01:00,0.37918,R,ugm-3,5.09299,R,ugm-3,5.67452,R,ugm-3
02-01-2013,02:00,0.75877,R,ugm-3,3.25826,R,ugm-3,4.42170,R,ugm-3
02-01-2013,03:00,0.81823,R,ugm-3,2.72483,R,ugm-3,3.97953,R,ugm-3
02-01-2013,04:00,0.49767,R,ugm-3,2.60817,R,ugm-3,3.37155,R,ugm-3
02-01-2013,05:00,0.53322,R,ugm-3,4.37771,R,ugm-3,5.19550,R,ugm-3
02-01-2013,06:00,0.49799,R,ugm-3,3.32679,R,ugm-3,4.09007,R,ugm-3
02-01-2013,07:00,2.09952,R,ugm-3,14.08078,R,ugm-3,17.29990,R,ugm-3
02-01-2013,08:00,5.90597,R,ugm-3,32.06593,R,ugm-3,41.12181,R,ugm-3
02-01-2013,09:00,10.53127,R,ugm-3,48.90645,R,ugm-3,65.05426,R,ugm-3
02-01-2013,10:00,10.03328,R,ugm-3,46.74102,R,ugm-3,62.12489,R,ugm-3
02-01-2013,11:00,4.55420,R,ugm-3,22.69755,R,ugm-3,29.68066,R,ugm-3
02-01-2013,12:00,0.96105,R,ugm-3,7.86755,R,ugm-3,9.34084,R,ugm-3
02-01-2013,13:00,1.35207,R,ugm-3,8.87065,R,ugm-3,10.94371,R,ugm-3
02-01-2013,14:00,1.45872,R,ugm-3,11.74753,R,ugm-3,13.98363,R,ugm-3
02-01-2013,15:00,1.37577,R,ugm-3,11.89256,R,ugm-3,14.00205,R,ugm-3
02-01-2013,16:00,,,,,,,,,
02-01-2013,17:00,1.24543,R,ugm-3,8.09418,R,ugm-3,10.00410,R,ugm-3
02-01-2013,18:00,1.03214,R,ugm-3,7.81304,R,ugm-3,9.39611,R,ugm-3
02-01-2013,19:00,0.92487,R,ugm-3,4.88213,R,ugm-3,6.30092,R,ugm-3
02-01-2013,20:00,0.81854,R,ugm-3,4.88022,R,ugm-3,6.13511,R,ugm-3
02-01-2013,21:00,0.67573,R,ugm-3,2.77791,R,ugm-3,3.81372,R,ugm-3
02-01-2013,22:00,0.56877,R,ugm-3,3.27324,R,ugm-3,4.14534,R,ugm-3
02-01-2013,23:00,0.39103,R,ugm-3,1.94310,R,ugm-3,2.54248,R,ugm-3
02-01-2013,24:00,0.56877,R,ugm-3,0.95195,R,ugm-3,1.82395,R,ugm-3
03-01-2013,01:00,0.42782,R,ugm-3,0.08096,R,ugm-3,0.73695,R,ugm-3
03-01-2013,02:00,0.57002,R,ugm-3,-0.21101,R,ugm-3,0.66326,R,ugm-3
03-01-2013,03:00,0.49861,R,ugm-3,-0.26679,R,ugm-3,0.49744,R,ugm-3
03-01-2013,04:00,0.32056,R,ugm-3,-0.54697,R,ugm-3,-0.05527,R,ugm-3
03-01-2013,05:00,0.35610,R,ugm-3,-0.43557,R,ugm-3,0.11054,R,ugm-3
03-01-2013,06:00,0.60556,R,ugm-3,1.17141,R,ugm-3,2.10031,R,ugm-3
03-01-2013,07:00,1.28191,R,ugm-3,6.10422,R,ugm-3,8.06960,R,ugm-3
03-01-2013,08:00,1.45997,R,ugm-3,8.59478,R,ugm-3,10.83317,R,ugm-3
03-01-2013,09:00,1.53137,R,ugm-3,11.85702,R,ugm-3,14.20471,R,ugm-3
03-01-2013,10:00,1.21082,R,ugm-3,9.25315,R,ugm-3,11.10952,R,ugm-3
03-01-2013,11:00,1.13941,R,ugm-3,7.81495,R,ugm-3,9.56193,R,ugm-3
03-01-2013,12:00,1.56692,R,ugm-3,9.48074,R,ugm-3,11.88332,R,ugm-3
03-01-2013,13:00,1.56723,R,ugm-3,9.48026,R,ugm-3,11.88332,R,ugm-3
03-01-2013,14:00,1.49583,R,ugm-3,8.53931,R,ugm-3,10.83317,R,ugm-3
03-01-2013,15:00,1.53137,R,ugm-3,8.87209,R,ugm-3,11.22006,R,ugm-3
03-01-2013,16:00,1.42442,R,ugm-3,11.35738,R,ugm-3,13.54146,R,ugm-3
03-01-2013,17:00,1.31746,R,ugm-3,10.63685,R,ugm-3,12.65712,R,ugm-3
03-01-2013,18:00,1.24668,R,ugm-3,11.24359,R,ugm-3,13.15456,R,ugm-3
03-01-2013,19:00,0.57002,R,ugm-3,7.47214,R,ugm-3,8.34596,R,ugm-3
03-01-2013,20:00,0.99722,R,ugm-3,8.36480,R,ugm-3,9.89355,R,ugm-3
03-01-2013,21:00,1.17496,R,ugm-3,8.09179,R,ugm-3,9.89355,R,ugm-3
03-01-2013,22:00,0.64111,R,ugm-3,4.26774,R,ugm-3,5.25077,R,ugm-3
03-01-2013,23:00,0.81916,R,ugm-3,7.53238,R,ugm-3,8.78813,R,ugm-3
03-01-2013,24:00,0.60556,R,ugm-3,3.43772,R,ugm-3,4.36643,R,ugm-3
04-01-2013,01:00,0.23699,R,ugm-3,1.03721,R,ugm-3,1.40021,R,ugm-3
04-01-2013,02:00,0.80700,R,ugm-3,0.38378,R,ugm-3,1.62129,R,ugm-3
04-01-2013,03:00,0.35610,R,ugm-3,0.17260,R,ugm-3,0.71853,R,ugm-3
04-01-2013,04:00,0.35579,R,ugm-3,0.22807,R,ugm-3,0.77380,R,ugm-3
04-01-2013,05:00,0.46306,R,ugm-3,0.28496,R,ugm-3,0.99488,R,ugm-3
04-01-2013,06:00,0.53416,R,ugm-3,2.55223,R,ugm-3,3.37155,R,ugm-3
04-01-2013,07:00,1.24637,R,ugm-3,10.80132,R,ugm-3,12.71239,R,ugm-3
04-01-2013,08:00,1.21051,R,ugm-3,17.98611,R,ugm-3,19.84238,R,ugm-3
04-01-2013,09:00,2.10108,R,ugm-3,17.44965,R,ugm-3,20.67145,R,ugm-3
04-01-2013,10:00,0.88995,R,ugm-3,12.17689,R,ugm-3,13.54146,R,ugm-3
04-01-2013,11:00,0.96136,R,ugm-3,7.70068,R,ugm-3,9.17503,R,ugm-3
04-01-2013,12:00,1.17527,R,ugm-3,10.35762,R,ugm-3,12.15968,R,ugm-3
04-01-2013,13:00,1.56692,R,ugm-3,10.97345,R,ugm-3,13.37564,R,ugm-3
04-01-2013,14:00,1.10386,R,ugm-3,10.24622,R,ugm-3,11.93859,R,ugm-3
04-01-2013,15:00,1.38856,R,ugm-3,13.40184,R,ugm-3,15.53122,R,ugm-3
04-01-2013,16:00,1.60247,R,ugm-3,19.87279,R,ugm-3,22.32959,R,ugm-3
04-01-2013,17:00,1.67388,R,ugm-3,25.78767,R,ugm-3,28.35415,R,ugm-3
04-01-2013,18:00,1.17527,R,ugm-3,18.04061,R,ugm-3,19.84238,R,ugm-3
04-01-2013,19:00,1.06831,R,ugm-3,11.95838,R,ugm-3,13.59673,R,ugm-3
04-01-2013,20:00,0.67635,R,ugm-3,7.41954,R,ugm-3,8.45650,R,ugm-3
04-01-2013,21:00,0.60556,R,ugm-3,3.93545,R,ugm-3,4.86387,R,ugm-3
04-01-2013,22:00,0.42751,R,ugm-3,1.94214,R,ugm-3,2.59775,R,ugm-3
04-01-2013,23:00,0.39165,R,ugm-3,1.83170,R,ugm-3,2.43194,R,ugm-3
04-01-2013,24:00,0.42751,R,ugm-3,0.94764,R,ugm-3,1.60287,R,ugm-3
05-01-2013,01:00,0.28563,R,ugm-3,0.96263,R,ugm-3,1.40021,R,ugm-3
05-01-2013,02:00,0.47522,R,ugm-3,0.00765,R,ugm-3,0.73695,R,ugm-3
05-01-2013,03:00,0.42782,R,ugm-3,0.28401,R,ugm-3,0.93961,R,ugm-3
05-01-2013,04:00,0.07110,R,ugm-3,0.33373,R,ugm-3,0.44217,R,ugm-3
05-01-2013,05:00,0.21391,R,ugm-3,0.05881,R,ugm-3,0.38690,R,ugm-3
05-01-2013,06:00,0.28563,R,ugm-3,0.17021,R,ugm-3,0.60798,R,ugm-3
05-01-2013,07:00,0.46368,R,ugm-3,1.44489,R,ugm-3,2.15558,R,ugm-3
05-01-2013,08:00,0.74869,R,ugm-3,4.98684,R,ugm-3,6.13511,R,ugm-3
05-01-2013,09:00,1.35457,R,ugm-3,17.54384,R,ugm-3,19.62129,R,ugm-3
05-01-2013,10:00,1.06925,R,ugm-3,11.29379,R,ugm-3,12.93347,R,ugm-3
05-01-2013,11:00,0.92674,R,ugm-3,7.47835,R,ugm-3,8.89867,R,ugm-3
05-01-2013,12:00,0.89120,R,ugm-3,6.86922,R,ugm-3,8.23542,R,ugm-3
05-01-2013,13:00,1.06925,R,ugm-3,7.42480,R,ugm-3,9.06449,R,ugm-3
05-01-2013,14:00,1.03339,R,ugm-3,5.87663,R,ugm-3,7.46162,R,ugm-3
05-01-2013,15:00,0.78424,R,ugm-3,4.54601,R,ugm-3,5.74821,R,ugm-3
05-01-2013,16:00,1.17652,R,ugm-3,9.69255,R,ugm-3,11.49642,R,ugm-3
05-01-2013,17:00,1.60403,R,ugm-3,15.55867,R,ugm-3,18.01843,R,ugm-3
05-01-2013,18:00,7.48505,R,ugm-3,37.88041,R,ugm-3,49.35723,R,ugm-3
05-01-2013,19:00,15.78926,R,ugm-3,53.94350,R,ugm-3,78.15355,R,ugm-3
05-01-2013,20:00,6.16603,R,ugm-3,27.79819,R,ugm-3,37.25282,R,ugm-3
05-01-2013,21:00,3.13634,R,ugm-3,16.52591,R,ugm-3,21.33470,R,ugm-3
05-01-2013,22:00,5.41734,R,ugm-3,23.19815,R,ugm-3,31.50461,R,ugm-3
05-01-2013,23:00,2.88688,R,ugm-3,16.79749,R,ugm-3,21.22416,R,ugm-3
05-01-2013,24:00,3.35025,R,ugm-3,19.01647,R,ugm-3,24.15354,R,ugm-3
06-01-2013,01:00,0.71262,R,ugm-3,8.78220,R,ugm-3,9.87513,R,ugm-3
06-01-2013,02:00,0.95086,R,ugm-3,6.64849,R,ugm-3,8.10645,R,ugm-3
06-01-2013,03:00,0.71283,R,ugm-3,5.37365,R,ugm-3,6.46674,R,ugm-3
06-01-2013,04:00,0.99815,R,ugm-3,3.38847,R,ugm-3,4.91914,R,ugm-3
06-01-2013,05:00,0.92674,R,ugm-3,4.16160,R,ugm-3,5.58240,R,ugm-3
06-01-2013,06:00,0.64142,R,ugm-3,3.43868,R,ugm-3,4.42170,R,ugm-3
06-01-2013,07:00,2.74437,R,ugm-3,12.87065,R,ugm-3,17.07882,R,ugm-3
06-01-2013,08:00,8.51844,R,ugm-3,20.65404,R,ugm-3,33.71546,R,ugm-3
06-01-2013,09:00,9.90855,R,ugm-3,23.66288,R,ugm-3,38.85569,R,ugm-3
06-01-2013,10:00,9.76574,R,ugm-3,25.92681,R,ugm-3,40.90073,R,ugm-3
06-01-2013,11:00,15.36144,R,ugm-3,29.17471,R,ugm-3,52.72877,R,ugm-3
06-01-2013,12:00,10.37161,R,ugm-3,20.57611,R,ugm-3,36.47903,R,ugm-3
06-01-2013,13:00,1.78208,R,ugm-3,11.85893,R,ugm-3,14.59161,R,ugm-3
06-01-2013,14:00,5.80930,R,ugm-3,21.43626,R,ugm-3,30.34392,R,ugm-3
06-01-2013,15:00,1.49707,R,ugm-3,10.69374,R,ugm-3,12.98874,R,ugm-3
06-01-2013,16:00,1.10511,R,ugm-3,8.19889,R,ugm-3,9.89355,R,ugm-3
06-01-2013,17:00,1.17620,R,ugm-3,6.21084,R,ugm-3,8.01433,R,ugm-3
06-01-2013,18:00,0.89120,R,ugm-3,6.26057,R,ugm-3,7.62743,R,ugm-3
06-01-2013,19:00,0.85534,R,ugm-3,6.31555,R,ugm-3,7.62743,R,ugm-3
06-01-2013,20:00,0.74869,R,ugm-3,5.92684,R,ugm-3,7.07472,R,ugm-3
06-01-2013,21:00,0.57033,R,ugm-3,3.21587,R,ugm-3,4.09007,R,ugm-3
06-01-2013,22:00,0.96229,R,ugm-3,5.10159,R,ugm-3,6.57728,R,ugm-3
06-01-2013,23:00,0.60588,R,ugm-3,2.60817,R,ugm-3,3.53736,R,ugm-3
06-01-2013,24:00,0.39228,R,ugm-3,1.44394,R,ugm-3,2.04504,R,ugm-3
07-01-2013,01:00,0.38043,R,ugm-3,0.74269,R,ugm-3,1.32651,R,ugm-3
07-01-2013,02:00,0.47564,R,ugm-3,0.52403,R,ugm-3,1.25282,R,ugm-3
07-01-2013,03:00,0.39228,R,ugm-3,0.22711,R,ugm-3,0.82907,R,ugm-3
07-01-2013,04:00,0.35673,R,ugm-3,0.00574,R,ugm-3,0.55271,R,ugm-3
07-01-2013,05:00,0.24977,R,ugm-3,0.33564,R,ugm-3,0.71853,R,ugm-3
07-01-2013,06:00,0.35673,R,ugm-3,0.50347,R,ugm-3,1.05015,R,ugm-3
07-01-2013,07:00,0.57064,R,ugm-3,2.93903,R,ugm-3,3.81372,R,ugm-3
07-01-2013,08:00,1.56973,R,ugm-3,9.42098,R,ugm-3,11.82805,R,ugm-3
07-01-2013,09:00,1.17714,R,ugm-3,6.26487,R,ugm-3,8.06960,R,ugm-3
07-01-2013,10:00,0.71346,R,ugm-3,3.43820,R,ugm-3,4.53224,R,ugm-3
07-01-2013,11:00,0.89213,R,ugm-3,4.87783,R,ugm-3,6.24565,R,ugm-3
07-01-2013,12:00,1.07050,R,ugm-3,5.48888,R,ugm-3,7.12999,R,ugm-3
07-01-2013,13:00,0.67760,R,ugm-3,3.54864,R,ugm-3,4.58751,R,ugm-3
07-01-2013,14:00,0.82041,R,ugm-3,4.65598,R,ugm-3,5.91402,R,ugm-3
07-01-2013,15:00,0.96323,R,ugm-3,6.20558,R,ugm-3,7.68270,R,ugm-3
07-01-2013,16:00,1.10604,R,ugm-3,8.52927,R,ugm-3,10.22518,R,ugm-3
07-01-2013,17:00,1.17714,R,ugm-3,9.08342,R,ugm-3,10.88844,R,ugm-3
07-01-2013,18:00,0.74900,R,ugm-3,7.14223,R,ugm-3,8.29069,R,ugm-3
07-01-2013,19:00,0.74900,R,ugm-3,5.92636,R,ugm-3,7.07472,R,ugm-3
07-01-2013,20:00,0.67791,R,ugm-3,4.81902,R,ugm-3,5.85875,R,ugm-3
07-01-2013,21:00,0.57095,R,ugm-3,3.49079,R,ugm-3,4.36643,R,ugm-3
07-01-2013,22:00,0.49954,R,ugm-3,2.88166,R,ugm-3,3.64790,R,ugm-3
07-01-2013,23:00,0.32118,R,ugm-3,1.33206,R,ugm-3,1.82395,R,ugm-3
07-01-2013,24:00,0.39228,R,ugm-3,0.55941,R,ugm-3,1.16070,R,ugm-3
08-01-2013,01:00,0.28563,R,ugm-3,0.74078,R,ugm-3,1.17912,R,ugm-3
08-01-2013,02:00,0.52303,R,ugm-3,0.52403,R,ugm-3,1.32651,R,ugm-3
08-01-2013,03:00,0.35673,R,ugm-3,0.33756,R,ugm-3,0.88434,R,ugm-3
08-01-2013,04:00,0.28563,R,ugm-3,-0.16161,R,ugm-3,0.27636,R,ugm-3
08-01-2013,05:00,0.35673,R,ugm-3,-0.32560,R,ugm-3,0.22109,R,ugm-3
08-01-2013,06:00,0.39228,R,ugm-3,-0.10327,R,ugm-3,0.49744,R,ugm-3
08-01-2013,07:00,0.57095,R,ugm-3,2.27540,R,ugm-3,3.15046,R,ugm-3
08-01-2013,08:00,0.71346,R,ugm-3,7.52808,R,ugm-3,8.62232,R,ugm-3
08-01-2013,09:00,0.82010,R,ugm-3,5.87233,R,ugm-3,7.12999,R,ugm-3
08-01-2013,10:00,0.89182,R,ugm-3,6.48098,R,ugm-3,7.84852,R,ugm-3
08-01-2013,11:00,1.03432,R,ugm-3,5.59932,R,ugm-3,7.18526,R,ugm-3
08-01-2013,12:00,0.74932,R,ugm-3,4.87544,R,ugm-3,6.02457,R,ugm-3
08-01-2013,13:00,0.57064,R,ugm-3,3.98900,R,ugm-3,4.86387,R,ugm-3
08-01-2013,14:00,0.60650,R,ugm-3,7.08438,R,ugm-3,8.01433,R,ugm-3
08-01-2013,15:00,0.78486,R,ugm-3,6.47907,R,ugm-3,7.68270,R,ugm-3
08-01-2013,16:00,0.82041,R,ugm-3,7.03274,R,ugm-3,8.29069,R,ugm-3
08-01-2013,17:00,0.96323,R,ugm-3,7.42146,R,ugm-3,8.89867,R,ugm-3
08-01-2013,18:00,1.03464,R,ugm-3,8.47285,R,ugm-3,10.05937,R,ugm-3
08-01-2013,19:00,0.92768,R,ugm-3,10.73773,R,ugm-3,12.15968,R,ugm-3
08-01-2013,20:00,0.78486,R,ugm-3,9.68538,R,ugm-3,10.88844,R,ugm-3
08-01-2013,21:00,0.85596,R,ugm-3,10.29451,R,ugm-3,11.60696,R,ugm-3
08-01-2013,22:00,1.53387,R,ugm-3,16.66170,R,ugm-3,19.01331,R,ugm-3
08-01-2013,23:00,3.92401,R,ugm-3,36.21080,R,ugm-3,42.22724,R,ugm-3
08-01-2013,24:00,0.96292,R,ugm-3,14.27538,R,ugm-3,15.75231,R,ugm-3
09-01-2013,01:00,0.52387,R,ugm-3,8.33531,R,ugm-3,9.13818,R,ugm-3
09-01-2013,02:00,0.89307,R,ugm-3,3.55008,R,ugm-3,4.91914,R,ugm-3
09-01-2013,03:00,0.35704,R,ugm-3,2.49199,R,ugm-3,3.03992,R,ugm-3
09-01-2013,04:00,0.21391,R,ugm-3,2.71145,R,ugm-3,3.03992,R,ugm-3
09-01-2013,05:00,0.32149,R,ugm-3,3.04422,R,ugm-3,3.53736,R,ugm-3
09-01-2013,06:00,0.46431,R,ugm-3,5.53382,R,ugm-3,6.24565,R,ugm-3
09-01-2013,07:00,1.49957,R,ugm-3,10.96628,R,ugm-3,13.26510,R,ugm-3
09-01-2013,08:00,2.74905,R,ugm-3,18.66696,R,ugm-3,22.88230,R,ugm-3
09-01-2013,09:00,4.46284,R,ugm-3,31.51561,R,ugm-3,38.35825,R,ugm-3
09-01-2013,10:00,8.74763,R,ugm-3,33.51226,R,ugm-3,46.92529,R,ugm-3
09-01-2013,11:00,5.21278,R,ugm-3,18.37195,R,ugm-3,26.36439,R,ugm-3
09-01-2013,12:00,3.42758,R,ugm-3,11.71263,R,ugm-3,16.96827,R,ugm-3
09-01-2013,13:00,3.74907,R,ugm-3,11.82833,R,ugm-3,17.57626,R,ugm-3
09-01-2013,14:00,2.64209,R,ugm-3,11.53524,R,ugm-3,15.58649,R,ugm-3
09-01-2013,15:00,2.24951,R,ugm-3,11.19817,R,ugm-3,14.64688,R,ugm-3
09-01-2013,16:00,1.89215,R,ugm-3,12.79606,R,ugm-3,15.69704,R,ugm-3
09-01-2013,17:00,1.92770,R,ugm-3,17.88140,R,ugm-3,20.83726,R,ugm-3
09-01-2013,18:00,2.89187,R,ugm-3,25.74416,R,ugm-3,30.17810,R,ugm-3
09-01-2013,19:00,7.06939,R,ugm-3,40.23135,R,ugm-3,51.07064,R,ugm-3
09-01-2013,20:00,4.53487,R,ugm-3,31.29472,R,ugm-3,38.24771,R,ugm-3
09-01-2013,21:00,3.14195,R,ugm-3,27.01884,R,ugm-3,31.83624,R,ugm-3
09-01-2013,22:00,2.28537,R,ugm-3,21.64424,R,ugm-3,25.14842,R,ugm-3
09-01-2013,23:00,1.92801,R,ugm-3,20.69947,R,ugm-3,23.65610,R,ugm-3
09-01-2013,24:00,0.60712,R,ugm-3,16.31363,R,ugm-3,17.24463,R,ugm-3
10-01-2013,01:00,0.71387,R,ugm-3,13.93958,R,ugm-3,15.03378,R,ugm-3
10-01-2013,02:00,1.28555,R,ugm-3,13.87328,R,ugm-3,15.84443,R,ugm-3
10-01-2013,03:00,0.82135,R,ugm-3,11.83981,R,ugm-3,13.09929,R,ugm-3
10-01-2013,04:00,0.85658,R,ugm-3,12.61485,R,ugm-3,13.92836,R,ugm-3
10-01-2013,05:00,0.74932,R,ugm-3,12.89025,R,ugm-3,14.03890,R,ugm-3
10-01-2013,06:00,1.92801,R,ugm-3,15.78052,R,ugm-3,18.73695,R,ugm-3
10-01-2013,07:00,4.42729,R,ugm-3,23.33489,R,ugm-3,30.12283,R,ugm-3
10-01-2013,08:00,11.67535,R,ugm-3,29.02314,R,ugm-3,46.92529,R,ugm-3
10-01-2013,09:00,18.03066,R,ugm-3,27.95597,R,ugm-3,55.60288,R,ugm-3
10-01-2013,10:00,33.95431,R,ugm-3,32.94473,R,ugm-3,85.00718,R,ugm-3
10-01-2013,11:00,4.67738,R,ugm-3,18.30836,R,ugm-3,25.48005,R,ugm-3
10-01-2013,12:00,3.24922,R,ugm-3,14.25195,R,ugm-3,19.23440,R,ugm-3
10-01-2013,13:00,1.35644,R,ugm-3,10.79845,R,ugm-3,12.87820,R,ugm-3
10-01-2013,14:00,3.67798,R,ugm-3,23.98610,R,ugm-3,29.62539,R,ugm-3
10-01-2013,15:00,1.92833,R,ugm-3,24.18165,R,ugm-3,27.13818,R,ugm-3
10-01-2013,16:00,2.74936,R,ugm-3,28.28396,R,ugm-3,32.49950,R,ugm-3
10-01-2013,17:00,5.14137,R,ugm-3,39.48404,R,ugm-3,47.36746,R,ugm-3
10-01-2013,18:00,2.57069,R,ugm-3,26.73388,R,ugm-3,30.67554,R,ugm-3
10-01-2013,19:00,2.67795,R,ugm-3,23.14268,R,ugm-3,27.24873,R,ugm-3
10-01-2013,20:00,1.28503,R,ugm-3,9.80204,R,ugm-3,11.77278,R,ugm-3
10-01-2013,21:00,1.17808,R,ugm-3,7.14749,R,ugm-3,8.95394,R,ugm-3
10-01-2013,22:00,0.60681,R,ugm-3,5.25985,R,ugm-3,6.19038,R,ugm-3
10-01-2013,23:00,0.60744,R,ugm-3,4.48577,R,ugm-3,5.41658,R,ugm-3
10-01-2013,24:00,0.64298,R,ugm-3,5.03896,R,ugm-3,6.02457,R,ugm-3
11-01-2013,01:00,0.47647,R,ugm-3,6.64530,R,ugm-3,7.37588,R,ugm-3
11-01-2013,02:00,0.85783,R,ugm-3,3.11020,R,ugm-3,4.42553,R,ugm-3
11-01-2013,03:00,0.39321,R,ugm-3,2.71671,R,ugm-3,3.31914,R,ugm-3
11-01-2013,04:00,0.25040,R,ugm-3,2.60339,R,ugm-3,2.98723,R,ugm-3
11-01-2013,05:00,0.35735,R,ugm-3,2.27348,R,ugm-3,2.82127,R,ugm-3
11-01-2013,06:00,0.60744,R,ugm-3,7.53238,R,ugm-3,8.46382,R,ugm-3
11-01-2013,07:00,5.71762,R,ugm-3,28.79460,R,ugm-3,37.56164,R,ugm-3
11-01-2013,08:00,19.08244,R,ugm-3,31.31528,R,ugm-3,60.57437,R,ugm-3
11-01-2013,09:00,48.13518,R,ugm-3,40.15150,R,ugm-3,113.95727,R,ugm-3
11-01-2013,10:00,49.24278,R,ugm-3,37.62318,R,ugm-3,113.12748,R,ugm-3
11-01-2013,11:00,30.91090,R,ugm-3,38.01668,R,ugm-3,85.41263,R,ugm-3
11-01-2013,12:00,26.80105,R,ugm-3,44.98152,R,ugm-3,86.07646,R,ugm-3
11-01-2013,13:00,15.00876,R,ugm-3,25.94498,R,ugm-3,48.95737,R,ugm-3
11-01-2013,14:00,0.78642,R,ugm-3,3.21922,R,ugm-3,4.42553,R,ugm-3
11-01-2013,15:00,0.71470,R,ugm-3,3.66148,R,ugm-3,4.75744,R,ugm-3
11-01-2013,16:00,0.67884,R,ugm-3,3.16328,R,ugm-3,4.20425,R,ugm-3
11-01-2013,17:00,0.96510,R,ugm-3,5.26894,R,ugm-3,6.74893,R,ugm-3
11-01-2013,18:00,1.03619,R,ugm-3,6.32177,R,ugm-3,7.91063,R,ugm-3
11-01-2013,19:00,1.03619,R,ugm-3,8.64546,R,ugm-3,10.23403,R,ugm-3
11-01-2013,20:00,1.10760,R,ugm-3,15.39563,R,ugm-3,17.09359,R,ugm-3
11-01-2013,21:00,3.64492,R,ugm-3,21.68393,R,ugm-3,27.27230,R,ugm-3
11-01-2013,22:00,0.64298,R,ugm-3,4.87783,R,ugm-3,5.86382,R,ugm-3
11-01-2013,23:00,0.57189,R,ugm-3,10.57421,R,ugm-3,11.45105,R,ugm-3
11-01-2013,24:00,0.39290,R,ugm-3,5.42768,R,ugm-3,6.02978,R,ugm-3
12-01-2013,01:00,0.19084,R,ugm-3,1.10861,R,ugm-3,1.40142,R,ugm-3
12-01-2013,02:00,0.42866,R,ugm-3,1.40760,R,ugm-3,2.06525,R,ugm-3
12-01-2013,03:00,0.35735,R,ugm-3,1.44394,R,ugm-3,1.99149,R,ugm-3
12-01-2013,04:00,0.25008,R,ugm-3,0.99928,R,ugm-3,1.38298,R,ugm-3
12-01-2013,05:00,0.28563,R,ugm-3,0.44753,R,ugm-3,0.88511,R,ugm-3
12-01-2013,06:00,0.35735,R,ugm-3,0.28209,R,ugm-3,0.82979,R,ugm-3
12-01-2013,07:00,0.60712,R,ugm-3,1.17141,R,ugm-3,2.10212,R,ugm-3
12-01-2013,08:00,0.46462,R,ugm-3,2.10901,R,ugm-3,2.82127,R,ugm-3
12-01-2013,09:00,0.53572,R,ugm-3,1.55725,R,ugm-3,2.37872,R,ugm-3
12-01-2013,10:00,0.46431,R,ugm-3,1.61176,R,ugm-3,2.32340,R,ugm-3
12-01-2013,11:00,0.35704,R,ugm-3,2.10758,R,ugm-3,2.65532,R,ugm-3
12-01-2013,12:00,0.50017,R,ugm-3,0.22807,R,ugm-3,0.99574,R,ugm-3
12-01-2013,13:00,0.50017,R,ugm-3,1.39039,R,ugm-3,2.15744,R,ugm-3
12-01-2013,14:00,0.42876,R,ugm-3,1.66579,R,ugm-3,2.32340,R,ugm-3
12-01-2013,15:00,0.53572,R,ugm-3,2.11044,R,ugm-3,2.93191,R,ugm-3
12-01-2013,16:00,0.64330,R,ugm-3,5.48553,R,ugm-3,6.47233,R,ugm-3
12-01-2013,17:00,1.14346,R,ugm-3,8.86826,R,ugm-3,10.62126,R,ugm-3
12-01-2013,18:00,1.39355,R,ugm-3,11.13936,R,ugm-3,13.27658,R,ugm-3
12-01-2013,19:00,1.67980,R,ugm-3,13.07959,R,ugm-3,15.65530,R,ugm-3
12-01-2013,20:00,1.10791,R,ugm-3,12.62872,R,ugm-3,14.32764,R,ugm-3
12-01-2013,21:00,0.96479,R,ugm-3,12.18406,R,ugm-3,13.66381,R,ugm-3
12-01-2013,22:00,1.03619,R,ugm-3,13.73462,R,ugm-3,15.32338,R,ugm-3
12-01-2013,23:00,1.21518,R,ugm-3,13.95790,R,ugm-3,15.82125,R,ugm-3
12-01-2013,24:00,0.75025,R,ugm-3,13.89623,R,ugm-3,15.04679,R,ugm-3
13-01-2013,01:00,0.61991,R,ugm-3,13.06365,R,ugm-3,14.01416,R,ugm-3
13-01-2013,02:00,0.66772,R,ugm-3,16.01464,R,ugm-3,17.03827,R,ugm-3
13-01-2013,03:00,0.42907,R,ugm-3,15.10779,R,ugm-3,15.76593,R,ugm-3
13-01-2013,04:00,0.53665,R,ugm-3,13.78100,R,ugm-3,14.60423,R,ugm-3
13-01-2013,05:00,0.42938,R,ugm-3,11.51229,R,ugm-3,12.17019,R,ugm-3
13-01-2013,06:00,0.60837,R,ugm-3,12.17737,R,ugm-3,13.11062,R,ugm-3
13-01-2013,07:00,1.43065,R,ugm-3,14.40208,R,ugm-3,16.59572,R,ugm-3
13-01-2013,08:00,1.89527,R,ugm-3,15.84698,R,ugm-3,18.75316,R,ugm-3
13-01-2013,09:00,2.50364,R,ugm-3,17.79103,R,ugm-3,21.62975,R,ugm-3
13-01-2013,10:00,3.86289,R,ugm-3,16.70234,R,ugm-3,22.62550,R,ugm-3
13-01-2013,11:00,4.79275,R,ugm-3,14.11521,R,ugm-3,21.46380,R,ugm-3
13-01-2013,12:00,4.36368,R,ugm-3,13.00309,R,ugm-3,19.69359,R,ugm-3
13-01-2013,13:00,4.50650,R,ugm-3,13.28136,R,ugm-3,20.19146,R,ugm-3
13-01-2013,14:00,3.82734,R,ugm-3,13.21633,R,ugm-3,19.08508,R,ugm-3
13-01-2013,15:00,3.29069,R,ugm-3,14.03966,R,ugm-3,19.08508,R,ugm-3
13-01-2013,16:00,2.82545,R,ugm-3,17.46352,R,ugm-3,21.79571,R,ugm-3
13-01-2013,17:00,6.07996,R,ugm-3,28.90313,R,ugm-3,38.22547,R,ugm-3
13-01-2013,18:00,8.33352,R,ugm-3,44.53256,R,ugm-3,57.31055,R,ugm-3
13-01-2013,19:00,3.14725,R,ugm-3,30.02482,R,ugm-3,34.85101,R,ugm-3
13-01-2013,20:00,2.68232,R,ugm-3,27.52996,R,ugm-3,31.64250,R,ugm-3
13-01-2013,21:00,3.29069,R,ugm-3,28.31169,R,ugm-3,33.35740,R,ugm-3
13-01-2013,22:00,1.60964,R,ugm-3,21.04276,R,ugm-3,23.51060,R,ugm-3
13-01-2013,23:00,1.28753,R,ugm-3,17.05520,R,ugm-3,19.02976,R,ugm-3
13-01-2013,24:00,0.50079,R,ugm-3,15.05329,R,ugm-3,15.82125,R,ugm-3
14-01-2013,01:00,0.61991,R,ugm-3,15.86610,R,ugm-3,16.81700,R,ugm-3
14-01-2013,02:00,1.09679,R,ugm-3,20.44590,R,ugm-3,22.12763,R,ugm-3
14-01-2013,03:00,1.07299,R,ugm-3,21.97654,R,ugm-3,23.62124,R,ugm-3
14-01-2013,04:00,1.50206,R,ugm-3,23.97367,R,ugm-3,26.27656,R,ugm-3
14-01-2013,05:00,0.92986,R,ugm-3,17.16134,R,ugm-3,18.58721,R,ugm-3
14-01-2013,06:00,3.21897,R,ugm-3,21.11926,R,ugm-3,26.05528,R,ugm-3
14-01-2013,07:00,11.23100,R,ugm-3,32.45608,R,ugm-3,49.67652,R,ugm-3
14-01-2013,08:00,3.97016,R,ugm-3,24.33848,R,ugm-3,30.42548,R,ugm-3
14-01-2013,09:00,7.61851,R,ugm-3,33.62510,R,ugm-3,45.30631,R,ugm-3
14-01-2013,10:00,6.22309,R,ugm-3,29.18093,R,ugm-3,38.72334,R,ugm-3
14-01-2013,11:00,27.96914,R,ugm-3,44.46323,R,ugm-3,87.34880,R,ugm-3
14-01-2013,12:00,25.46550,R,ugm-3,46.42116,R,ugm-3,85.46795,R,ugm-3
14-01-2013,13:00,6.75974,R,ugm-3,26.36716,R,ugm-3,36.73186,R,ugm-3
14-01-2013,14:00,2.89685,R,ugm-3,12.20940,R,ugm-3,16.65104,R,ugm-3
14-01-2013,15:00,2.39638,R,ugm-3,13.30813,R,ugm-3,16.98295,R,ugm-3
14-01-2013,16:00,1.85941,R,ugm-3,10.75733,R,ugm-3,13.60849,R,ugm-3
14-01-2013,17:00,1.03744,R,ugm-3,11.96269,R,ugm-3,13.55317,R,ugm-3
14-01-2013,18:00,1.32307,R,ugm-3,11.24741,R,ugm-3,13.27658,R,ugm-3
14-01-2013,19:00,2.46810,R,ugm-3,14.02819,R,ugm-3,17.81274,R,ugm-3
14-01-2013,20:00,1.07299,R,ugm-3,5.87855,R,ugm-3,7.52339,R,ugm-3
14-01-2013,21:00,1.10885,R,ugm-3,5.49127,R,ugm-3,7.19148,R,ugm-3
14-01-2013,22:00,1.07299,R,ugm-3,8.09131,R,ugm-3,9.73616,R,ugm-3
14-01-2013,23:00,1.21643,R,ugm-3,14.84148,R,ugm-3,16.70636,R,ugm-3
14-01-2013,24:00,0.71564,R,ugm-3,6.53693,R,ugm-3,7.63403,R,ugm-3
15-01-2013,01:00,0.14344,R,ugm-3,1.40250,R,ugm-3,1.62269,R,ugm-3
15-01-2013,02:00,0.42949,R,ugm-3,1.03785,R,ugm-3,1.69645,R,ugm-3
15-01-2013,03:00,0.21516,R,ugm-3,1.44011,R,ugm-3,1.77021,R,ugm-3
15-01-2013,04:00,0.28657,R,ugm-3,0.94334,R,ugm-3,1.38298,R,ugm-3
15-01-2013,05:00,0.25102,R,ugm-3,1.21922,R,ugm-3,1.60425,R,ugm-3
15-01-2013,06:00,0.42938,R,ugm-3,3.60124,R,ugm-3,4.25957,R,ugm-3
15-01-2013,07:00,1.46807,R,ugm-3,11.41284,R,ugm-3,13.66381,R,ugm-3
15-01-2013,08:00,3.43662,R,ugm-3,26.04108,R,ugm-3,31.31059,R,ugm-3
15-01-2013,09:00,6.40769,R,ugm-3,39.90670,R,ugm-3,49.73184,R,ugm-3
15-01-2013,10:00,4.15257,R,ugm-3,23.50463,R,ugm-3,29.87229,R,ugm-3
15-01-2013,11:00,3.50803,R,ugm-3,14.86778,R,ugm-3,20.24678,R,ugm-3
15-01-2013,12:00,3.22209,R,ugm-3,12.04253,R,ugm-3,16.98295,R,ugm-3
15-01-2013,13:00,2.04058,R,ugm-3,9.04134,R,ugm-3,12.17019,R,ugm-3
15-01-2013,14:00,1.61089,R,ugm-3,9.75566,R,ugm-3,12.22551,R,ugm-3
15-01-2013,15:00,1.53948,R,ugm-3,11.85654,R,ugm-3,14.21700,R,ugm-3
15-01-2013,16:00,4.65368,R,ugm-3,28.98728,R,ugm-3,36.12335,R,ugm-3
15-01-2013,17:00,3.61530,R,ugm-3,35.83547,R,ugm-3,41.37866,R,ugm-3
15-01-2013,18:00,9.23563,R,ugm-3,38.83475,R,ugm-3,52.99566,R,ugm-3
15-01-2013,19:00,10.52441,R,ugm-3,39.84550,R,ugm-3,55.98289,R,ugm-3
15-01-2013,20:00,17.64836,R,ugm-3,43.19477,R,ugm-3,70.25521,R,ugm-3
15-01-2013,21:00,4.54641,R,ugm-3,30.53545,R,ugm-3,37.50632,R,ugm-3
15-01-2013,22:00,6.01386,R,ugm-3,40.89833,R,ugm-3,50.11907,R,ugm-3
15-01-2013,23:00,2.18371,R,ugm-3,26.91079,R,ugm-3,30.25953,R,ugm-3